Overview Statistics Trail Chart Weather Telemetry Raw packets
 

This is the latest recevied weather packets stored in our database for station/object W8RSN-13. If no packets are shown the sender has not sent any weather packets the latest 10 day(s).

<< 11 12 13 14 15 16 17 >>
Time Temp. Humidity Pressure Rain* Wind** Luminosity Snow
1788602372 16.11° C 73% 1015.6 hPa - - - -
1788602071 16.11° C 69% 1015.5 hPa - - - -
1788601770 16.67° C 70% 1015.7 hPa - - - -
1788601470 17.22° C 70% 1015.9 hPa - - - -
1788601169 17.78° C 70% 1015.9 hPa - - - -
1788600868 17.78° C 69% 1015.5 hPa - - - -
1788600567 17.78° C 69% 1015.9 hPa - - - -
1788600266 17.22° C 70% 1015.7 hPa - - - -
1788599965 17.22° C 70% 1015.7 hPa - - - -
1788599664 16.67° C 70% 1015.7 hPa - - - -
1788599363 16.67° C 72% 1015.7 hPa - - - -
1788599062 16.67° C 71% 1015.8 hPa - - - -
1788598762 16.67° C 72% 1015.7 hPa - - - -
1788598461 16.67° C 72% 1015.6 hPa - - - -
1788598160 16.67° C 73% 1015.9 hPa - - - -
1788597859 16.67° C 72% 1015.8 hPa - - - -
1788597558 16.67° C 70% 1015.8 hPa - - - -
1788597257 17.22° C 71% 1015.7 hPa - - - -
1788596956 17.78° C 71% 1016 hPa - - - -
1788596676 17.78° C 70% 1016.1 hPa - - - -
1788596375 17.78° C 71% 1016 hPa - - - -
1788596073 17.78° C 71% 1016.2 hPa - - - -
1788595773 17.78° C 71% 1016.3 hPa - - - -
1788595472 17.78° C 69% 1016.2 hPa - - - -
1788595171 17.78° C 68% 1016.2 hPa - - - -

* Rain since midnight (hover to see other rain measurements)
** Current wind speed in m/s (hover to see current wind gust speed)